This is the latest recevied weather packets stored in our database for station/object CE4JVU-10. If no packets are shown the sender has not sent any weather packets the latest 10 day(s).
| Time | Temp. | Humidity | Pressure | Rain* | Wind** | Luminosity | Snow |
|---|---|---|---|---|---|---|---|
| 1777580704 | 23.33° C | 48% | 977.2 hPa | - | - | - | - |
| 1777578904 | 23.33° C | 47% | 977.2 hPa | - | - | - | - |
| 1777577104 | 23.33° C | 49% | 977.1 hPa | - | - | - | - |
| 1777575303 | 22.78° C | 51% | 977.1 hPa | - | - | - | - |
| 1777573503 | 22.22° C | 52% | 977 hPa | - | - | - | - |
| 1777571703 | 21.67° C | 53% | 977.1 hPa | - | - | - | - |
| 1777569903 | 20.56° C | 57% | 977.6 hPa | - | - | - | - |
| 1777568103 | 20° C | 58% | 977.9 hPa | - | - | - | - |
| 1777566304 | 19.44° C | 58% | 978.1 hPa | - | - | - | - |
| 1777564504 | 18.89° C | 59% | 978.1 hPa | - | - | - | - |
| 1777562703 | 18.33° C | 60% | 978.2 hPa | - | - | - | - |
| 1777560903 | 17.78° C | 60% | 977.8 hPa | - | - | - | - |
| 1777559103 | 17.78° C | 62% | 977.5 hPa | - | - | - | - |
| 1777557303 | 17.22° C | 61% | 977.4 hPa | - | - | - | - |
| 1777555503 | 17.22° C | 62% | 977.2 hPa | - | - | - | - |
| 1777553703 | 17.22° C | 61% | 977.2 hPa | - | - | - | - |
| 1777551902 | 17.22° C | 63% | 976.9 hPa | - | - | - | - |
| 1777550102 | 17.78° C | 62% | 976.7 hPa | - | - | - | - |
| 1777548302 | 17.22° C | 60% | 976.5 hPa | - | - | - | - |
| 1777546502 | 17.22° C | 59% | 976.5 hPa | - | - | - | - |
| 1777544704 | 17.22° C | 60% | 976.3 hPa | - | - | - | - |
| 1777542904 | 17.22° C | 60% | 976.4 hPa | - | - | - | - |
| 1777541104 | 17.22° C | 59% | 976.5 hPa | - | - | - | - |
| 1777539303 | 17.78° C | 60% | 976.4 hPa | - | - | - | - |
| 1777537503 | 17.78° C | 60% | 976.3 hPa | - | - | - | - |
* Rain since midnight (hover to see other rain measurements)
** Current wind speed in m/s (hover to see current wind gust speed)